CAPE
652 1421 2270 2128 1673 1810 1660 1538 1891 2016 1999 1791 1621 1570 1530 1201 755 402 190 205 420 797 748 692 700 560 532 453 402 331 303 331 398 179 217 50 3 1 0 18 174 85 294
745 1400 2190 2223 2251 2227 2040 2079 2111 2103 2060 1945 1676 1468 1319 1098 858 545 240 302 625 1024 820 635 609 520 486 252 25 109 63 1 0 0 0 0 4 2 0 0 8 6 8
835 1450 1342 2195 2370 2336 2003 2020 1962 2037 1905 1886 1682 1593 1435 1149 640 286 266 340 717 1006 612 161 216 64 17 95 9 0 0 0 0 0 0 0 0 2 2 0 0 3 3
1069 1561 1286 1961 2012 2105 2020 1921 1920 1901 1864 1613 1046 1364 1164 1008 487 354 578 494 999 1067 761 211 203 271 1 0 0 0 0 0 0 0 0 0 0 3 1 1 1 1 1
1169 1462 1259 1978 1754 1745 1897 2018 1988 1914 1871 1760 1570 1168 1283 891 584 583 1153 1285 983 900 614 332 245 209 0 0 0 0 0 0 0 0 0 2 2 5 5 4 4 2 2
1184 1408 1416 1921 1807 1766 1819 1969 1858 1708 1701 1723 1665 1491 1219 1184 670 1044 1228 829 803 525 297 9 35 38 106 17 2 0 0 0 0 0 0 0 4 7 5 3 3 3 3
973 1255 1367 1591 1736 1500 1580 1506 1817 1871 1677 1531 1277 1225 1007 1013 875 1140 1152 1016 871 606 87 0 2 5 30 29 0 0 0 0 0 0 0 2 7 7 4 4 3 3 2
541 766 1095 1015 1415 1531 1524 1442 1279 1424 1427 1260 1440 1369 1217 1249 921 1066 1127 902 796 530 33 0 21 32 21 0 1 46 0 0 0 0 0 1 10 6 6 3 3 3 3
114 276 770 1085 1028 1242 1200 1081 936 838 373 350 833 1433 1326 1013 1083 861 745 789 823 691 300 54 184 137 19 50 0 125 0 0 0 0 0 1 8 6 3 1 1 2 2
66 244 254 432 570 644 510 270 150 299 307 123 330 895 889 817 774 638 398 545 786 680 481 176 195 152 130 157 2 0 0 0 0 0 0 0 7 5 1 0 0 0 0
0 120 151 143 112 198 202 118 105 62 53 52 174 470 589 779 770 541 263 166 350 494 516 404 227 139 71 46 0 0 0 0 0 0 0 0 10 8 1 0 0 0 0
0 0 167 163 152 128 113 91 65 53 52 34 259 471 549 622 583 482 335 170 273 215 152 469 422 173 15 13 0 0 0 0 0 0 0 0 1 17 12 0 0 0 0
0 6 7 121 378 130 144 135 67 71 46 23 10 168 201 230 346 466 434 324 254 25 61 16 253 117 0 0 0 0 0 0 0 0 0 0 0 52 43 32 11 0 0
0 0 0 25 288 217 157 156 141 93 31 2 1 0 61 271 176 430 325 301 135 66 93 75 102 184 107 5 0 0 0 0 0 0 0 0 0 97 55 52 31 29 29
0 0 0 12 97 153 195 178 142 89 21 11 7 1 38 72 137 185 276 244 152 110 106 306 138 119 83 28 0 0 0 0 0 0 0 0 0 52 189 142 86 67 59
0 0 0 0 36 77 127 171 144 104 39 23 9 8 10 50 111 117 184 207 261 189 216 140 144 146 93 61 33 0 0 0 0 0 0 0 0 0 69 214 190 170 152
0 0 0 10 18 62 101 126 160 177 140 74 63 0 0 0 29 148 240 172 178 203 194 93 86 127 104 101 58 0 0 0 0 0 0 0 0 0 0 11 160 251 256
0 0 0 7 0 8 50 62 64 61 55 0 0 0 0 0 0 33 137 159 245 159 168 146 59 83 64 109 140 2 0 0 0 0 0 0 0 0 0 0 25 199 355
0 0 0 9 0 1 0 26 0 0 0 0 0 0 0 0 0 7 51 59 161 153 104 97 128 86 40 29 101 16 0 0 0 0 0 0 0 0 0 0 0 1 124
0 0 0 7 8 15 15 24 9 0 0 1 2 0 0 0 2 28 38 46 94 98 46 76 26 81 98 26 4 0 0 0 0 0 0 0 0 0 0 0 0 0 0
0 0 6 15 36 69 79 48 40 25 22 15 7 4 0 0 1 22 59 63 99 78 28 53 77 35 77 23 20 4 0 0 0 0 0 0 0 0 7 26 28 22 0
0 44 87 120 142 152 136 120 78 53 20 33 37 3 16 5 20 10 67 37 33 41 35 43 65 45 101 36 21 3 0 5 1 0 0 0 0 25 48 56 56 56 29
62 152 158 163 131 153 174 165 121 69 42 90 68 4 46 24 73 35 127 106 47 40 15 9 51 54 75 19 17 9 0 0 37 63 50 38 23 39 65 88 84 84 54
142 59 79 72 80 60 55 59 83 95 140 95 114 57 31 7 76 79 102 104 59 62 49 3 22 62 90 28 3 5 36 34 98 96 46 76 87 101 119 139 131 147 95
59 61 59 80 78 34 30 39 74 55 109 55 83 73 38 9 33 70 27 96 32 55 12 6 42 34 6 3 0 0 0 73 90 103 104 121 141 153 158 165 106 108 83
93 62 72 68 80 72 134 44 153 124 51 39 27 5 17 14 25 29 30 5 100 24 13 12 2 2 3 6 7 31 0 17 82 131 118 132 120 122 100 107 135 95 57
CIN
-98 -29 0 0 -2 0 0 0 0 -1 -1 0 0 0 0 0 -13 -94 -190 -168 -70 -31 -28 -36 -35 -62 -78 -105 -120 -126 -120 -103 -80 -136 -122 -248 0 0 0 -97 -149 -197 -99
-75 -7 0 0 0 0 0 0 0 0 0 -1 -3 -1 -1 -1 -10 -56 -158 -121 -35 -3 -28 -56 -53 -69 -89 -150 -283 -222 -249 -29 0 0 0 -1 0 0 0 0 -1 0 -1
-38 0 0 -1 0 0 0 0 -1 0 -1 -1 -1 0 -4 -4 -30 -129 -142 -111 -32 -9 -54 -185 -152 -251 -135 -226 -256 0 0 0 0 0 0 0 0 0 0 0 0 0 0
-4 0 -1 -2 -1 0 0 0 -1 -1 0 0 -2 -1 -1 -3 -39 -82 -40 -60 -3 -9 -42 -151 -154 -146 -2 0 0 0 0 0 0 0 0 0 0 0 0 0 0 0 0
-11 0 -3 -2 -1 -1 0 0 0 0 0 0 0 0 -1 -7 -25 -20 0 0 -2 -10 -64 -119 -131 -160 0 0 0 0 0 0 0 0 0 0 0 0 0 0 0 0 0
-1 0 -3 -1 -1 0 0 0 0 0 0 0 0 -1 -2 -1 -14 0 0 -1 -11 -54 -107 -132 -290 -278 -215 -85 0 0 0 0 0 0 0 0 0 0 0 0 0 0 0
0 0 0 -4 -3 -2 -1 -3 0 0 0 0 0 0 0 0 -2 0 -1 -1 0 -33 -230 0 0 0 -120 -74 0 0 0 0 0 0 0 0 0 0 0 0 0 0 0
-12 -4 -8 -7 -9 -3 -1 0 -2 -1 0 0 0 0 0 0 -1 0 -2 0 -5 -25 -160 0 -129 -132 -99 0 0 -113 0 0 0 0 0 0 0 0 0 0 0 0 0
-99 -27 -14 -8 -3 -4 -1 -2 -2 -1 -22 -30 -3 0 0 -2 -3 -2 -11 -9 0 -11 -61 -186 -119 -157 -25 -183 0 -176 0 0 0 0 0 0 -1 0 0 0 0 0 0
-87 -48 -25 -10 -17 -11 -8 -28 -60 -20 -26 -115 -57 -8 -5 -3 -8 -12 -39 -27 -7 -7 -25 -110 -97 -122 -161 -156 -1 0 0 0 0 0 0 0 -2 0 0 0 0 0 0
0 -74 -98 -65 -45 -43 -48 -88 -84 -23 -1 -40 -140 -32 -19 0 0 -7 -63 -104 -56 -25 -18 -36 -78 -115 -68 -12 0 0 0 0 0 0 0 0 -1 0 0 0 0 0 0
0 0 -23 -45 -31 -31 -36 -41 -61 -43 -22 -6 -94 -32 -16 -7 -7 -12 -44 -119 -104 -95 -105 -12 -15 -89 -25 -29 0 0 0 0 0 0 0 0 0 0 0 0 0 0 0
0 -31 -28 -19 -6 -30 -41 -43 -40 -38 -25 -22 -56 -67 -147 -114 -47 -18 -8 -37 -72 -25 -4 -5 -24 -35 0 -6 0 0 0 0 0 0 0 0 0 0 0 0 -1 0 0
0 0 0 -24 -2 -16 -23 -28 -41 -50 -32 -16 -31 0 -106 -79 -74 -48 -68 -49 -113 -56 -74 -5 -1 -21 -6 -81 -2 0 0 0 0 0 0 0 0 0 0 0 -1 -1 0
0 0 0 -46 -33 -27 -20 -27 -31 -54 -32 -22 -30 -51 -137 -106 -77 -62 -56 -114 -88 -41 -51 -42 -42 -5 -9 -15 -1 0 0 0 0 0 0 0 0 -22 -77 -36 0 0 0
0 0 0 -3 -49 -38 -30 -29 -37 -27 -23 -20 -31 -46 -56 -106 -85 -53 -34 -17 -15 -47 -131 -86 -5 -13 -7 -19 -48 0 0 0 0 0 0 0 0 0 -28 -51 -68 -1 0
0 0 0 -17 -43 -47 -47 -41 -37 -17 -11 -18 -16 0 0 0 -94 -26 -18 -13 -14 -8 -17 -37 -49 -15 -8 -3 -5 0 0 0 0 0 0 0 0 0 0 -44 -12 -6 -8
0 0 0 -10 0 -85 -79 -69 -57 -62 -37 0 0 0 0 0 0 -64 -12 -3 -3 -13 -6 -1 -14 -10 -1 -14 -4 -109 0 0 0 0 0 0 0 0 0 0 -52 -15 -4
0 0 0 -17 0 -117 -12 -116 0 0 0 0 0 0 0 0 0 0 -32 -15 -1 0 -3 -10 -3 -3 -5 -8 -19 -119 0 0 0 0 0 0 0 0 0 0 0 -18 -45
0 0 0 -11 -7 -251 -187 -94 -85 0 0 0 0 0 0 0 0 -39 -27 0 -1 -14 0 -7 -13 -3 0 -2 -1 0 0 0 0 0 0 0 0 0 0 0 0 0 0
0 0 -6 -225 -216 -158 -103 -83 -66 -81 -187 -164 0 -8 0 0 0 -50 -7 -1 0 0 0 0 0 -4 -3 0 -5 -14 0 0 0 0 0 0 0 0 -30 -38 -32 -38 0
0 -56 -108 -127 -112 -117 -92 -91 -91 -127 -113 -70 -68 0 -41 -20 -35 0 0 0 -6 -1 0 0 0 0 0 -6 0 -11 0 -14 -105 0 -28 0 0 -76 -43 -32 -16 -17 -33
-1 -15 -86 -86 -88 -82 -71 -68 -73 -63 -58 -26 -20 -3 -41 -31 -6 -27 0 0 -2 -1 -2 -20 0 -1 -2 -3 -1 -1 0 0 -23 -148 -182 -170 -135 -78 -58 -31 -14 -8 -15
0 -59 -93 -41 -90 -136 -135 -118 -65 -18 -23 -5 -11 -39 -73 -76 -22 -14 -2 0 0 0 -1 -6 -20 0 0 0 -1 0 -10 -25 -26 -36 -117 -102 -78 -61 -47 -27 -22 -11 -16
-49 -60 -75 -93 -74 -89 -93 -55 -21 -15 0 -26 -13 -29 -58 -76 -44 -8 -6 -1 0 -12 -3 0 0 0 0 0 0 0 0 -49 -28 -11 -33 -44 -73 -71 -65 -39 -36 -25 -32
-21 -32 -34 -35 -19 -12 -5 -8 -11 -6 -1 -6 -7 -2 -26 -40 -65 -8 0 0 -14 -6 0 0 0 -1 0 0 0 -3 0 -4 -22 -29 -24 -19 -13 -41 -48 -14 -12 -22 -29
Wind_Speed
16 17 21 22 26 35 36 32 30 29 28 26 25 23 22 19 19 17 15 15 14 13 16 13 12 14 18 20 21 19 17 18 18 18 18 nan nan nan nan nan 19 nan 20
18 20 24 23 24 25 32 39 35 32 31 29 27 25 23 20 19 18 16 16 14 17 21 17 16 16 17 18 nan 19 nan nan nan nan nan nan nan nan nan nan nan nan nan
23 21 24 24 26 30 29 30 37 38 33 32 28 26 25 24 21 20 18 16 16 16 19 18 17 nan nan nan nan nan nan nan nan nan nan nan nan nan nan nan nan nan nan
23 23 22 28 30 31 33 31 30 30 37 34 30 30 26 27 23 22 21 18 17 19 20 19 20 17 nan nan nan nan nan nan nan nan nan nan nan nan nan nan nan nan nan
25 26 26 29 30 31 32 31 30 28 27 30 33 32 31 32 25 23 22 22 20 22 23 21 20 22 nan nan nan nan nan nan nan nan nan nan nan nan nan nan nan nan nan
30 28 30 31 29 30 31 32 31 31 30 28 24 27 34 34 31 26 25 25 26 28 25 nan nan nan 21 nan nan nan nan nan nan nan nan nan nan nan nan nan nan nan nan
32 31 31 32 33 29 28 30 32 32 31 30 30 25 28 29 34 31 31 32 31 31 nan nan nan nan nan nan nan nan nan nan nan nan nan nan nan nan nan nan nan nan nan
39 30 30 32 36 33 32 31 31 32 32 30 30 29 28 25 27 32 36 34 36 35 nan nan nan nan nan nan nan nan nan nan nan nan nan nan nan nan nan nan nan nan nan
46 42 34 34 36 36 38 39 42 41 40 36 32 30 29 29 28 25 32 35 35 37 35 nan 28 26 nan nan nan 24 nan nan nan nan nan nan nan nan nan nan nan nan nan
nan 49 46 41 39 43 43 47 43 42 39 38 34 33 34 33 29 29 31 32 36 36 38 36 30 29 26 26 nan nan nan nan nan nan nan nan nan nan nan nan nan nan nan
nan 51 49 45 38 41 39 41 44 nan nan nan 38 37 36 36 35 32 33 34 34 34 40 38 34 30 nan nan nan nan nan nan nan nan nan nan nan nan nan nan nan nan nan
nan nan 50 47 43 41 40 nan nan nan nan nan 42 41 39 38 37 34 33 34 35 35 37 35 36 33 nan nan nan nan nan nan nan nan nan nan nan nan nan nan nan nan nan
nan nan nan 49 45 42 43 42 nan nan nan nan nan 38 38 40 41 40 36 34 34 nan nan nan 35 35 nan nan nan nan nan nan nan nan nan nan nan nan nan nan nan nan nan
nan nan nan nan 48 45 47 48 49 nan nan nan nan nan nan 41 43 40 41 38 36 nan nan nan 36 35 36 nan nan nan nan nan nan nan nan nan nan nan nan nan nan nan nan
nan nan nan nan nan 49 45 50 46 nan nan nan nan nan nan nan 46 43 41 41 41 43 39 36 35 36 nan nan nan nan nan nan nan nan nan nan nan nan 17 23 nan nan nan
nan nan nan nan nan nan 49 47 49 52 nan nan nan nan nan nan 45 43 41 40 36 38 41 41 40 38 nan nan nan nan nan nan nan nan nan nan nan nan nan 19 24 25 23
nan nan nan nan nan nan 47 47 50 52 53 nan nan nan nan nan nan 42 39 41 39 39 38 nan nan 43 46 49 nan nan nan nan nan nan nan nan nan nan nan nan 21 24 26
nan nan nan nan nan nan nan nan nan nan nan nan nan nan nan nan nan nan 41 39 41 42 41 40 nan nan nan 49 49 nan nan nan nan nan nan nan nan nan nan nan nan 25 26
nan nan nan nan nan nan nan nan nan nan nan nan nan nan nan nan nan nan nan nan 40 46 45 nan 46 nan nan nan 54 nan nan nan nan nan nan nan nan nan nan nan nan nan 30
nan nan nan nan nan nan nan nan nan nan nan nan nan nan nan nan nan nan nan nan nan nan nan nan nan nan nan nan nan nan nan nan nan nan nan nan nan nan nan nan nan nan nan
nan nan nan nan nan nan nan nan nan nan nan nan nan nan nan nan nan nan nan nan nan nan nan nan nan nan nan nan nan nan nan nan nan nan nan nan nan nan nan nan nan nan nan
nan nan nan 63 60 55 54 52 nan nan nan nan nan nan nan nan nan nan nan nan nan nan nan nan nan nan 52 nan nan nan nan nan nan nan nan nan nan nan nan nan nan nan nan
nan 68 68 63 66 61 54 48 46 nan nan nan nan nan nan nan nan nan 43 44 nan nan nan nan nan nan nan nan nan nan nan nan nan nan nan nan nan nan nan nan nan nan nan
38 nan nan nan nan nan nan nan nan nan 37 nan 43 nan nan nan nan nan 40 43 nan nan nan nan nan nan nan nan nan nan nan nan nan nan nan nan nan 50 50 50 51 50 nan
nan nan nan nan nan nan nan nan nan nan 35 nan nan nan nan nan nan nan nan nan nan nan nan nan nan nan nan nan nan nan nan nan nan 71 66 62 62 62 54 49 43 51 nan
nan nan nan nan nan nan 35 nan 34 34 nan nan nan nan nan nan nan nan nan nan 39 nan nan nan nan nan nan nan nan nan nan nan nan 53 57 55 48 50 44 42 37 nan nan
Wind_Direction
266 288 295 295 284 269 270 265 261 264 271 278 284 288 290 293 293 291 300 311 316 321 328 295 311 313 309 308 316 310 297 287 283 273 262 nan nan nan nan nan 279 nan 283
267 294 293 294 296 291 278 266 264 260 269 272 277 283 284 288 296 295 297 304 313 308 313 305 291 294 297 302 nan 315 nan nan nan nan nan nan nan nan nan nan nan nan nan
268 280 291 291 298 298 295 286 270 267 264 270 274 276 279 282 289 297 300 303 309 309 301 306 297 nan nan nan nan nan nan nan nan nan nan nan nan nan nan nan nan nan nan
254 266 275 280 283 291 294 295 294 285 272 268 273 273 276 278 283 292 299 304 302 299 295 296 297 295 nan nan nan nan nan nan nan nan nan nan nan nan nan nan nan nan nan
262 268 267 269 279 283 289 291 291 289 290 282 269 269 274 279 279 283 287 293 291 284 284 292 294 294 nan nan nan nan nan nan nan nan nan nan nan nan nan nan nan nan nan
258 266 268 268 270 273 279 288 291 291 289 283 281 269 270 273 280 279 277 280 283 286 286 nan nan nan 298 nan nan nan nan nan nan nan nan nan nan nan nan nan nan nan nan
244 256 264 270 271 269 274 281 287 291 289 285 278 276 267 267 274 276 275 278 282 283 nan nan nan nan nan nan nan nan nan nan nan nan nan nan nan nan nan nan nan nan nan
236 243 263 262 265 265 266 264 266 274 282 283 281 281 276 277 268 271 272 274 284 284 nan nan nan nan nan nan nan nan nan nan nan nan nan nan nan nan nan nan nan nan nan
237 238 245 263 266 261 260 261 259 258 262 264 267 278 279 274 269 272 274 270 277 279 280 nan 285 283 nan nan nan 279 nan nan nan nan nan nan nan nan nan nan nan nan nan
nan 238 236 244 262 264 266 266 264 263 260 260 266 273 272 270 268 269 272 273 273 274 276 276 278 281 276 274 nan nan nan nan nan nan nan nan nan nan nan nan nan nan nan
nan 243 240 239 246 257 265 266 265 nan nan nan 264 267 269 265 265 267 269 269 270 271 272 270 271 271 nan nan nan nan nan nan nan nan nan nan nan nan nan nan nan nan nan
nan nan 249 243 244 248 245 nan nan nan nan nan 256 261 260 263 263 263 270 273 272 272 268 269 271 262 nan nan nan nan nan nan nan nan nan nan nan nan nan nan nan nan nan
nan nan nan 252 248 247 244 247 nan nan nan nan nan 254 257 261 263 263 263 265 271 nan nan nan 262 255 nan nan nan nan nan nan nan nan nan nan nan nan nan nan nan nan nan
nan nan nan nan 250 249 244 243 247 nan nan nan nan nan nan 255 253 260 264 267 269 nan nan nan 256 256 253 nan nan nan nan nan nan nan nan nan nan nan nan nan nan nan nan
nan nan nan nan nan 249 249 248 246 nan nan nan nan nan nan nan 253 255 258 266 269 268 267 266 265 258 nan nan nan nan nan nan nan nan nan nan nan nan 282 289 nan nan nan
nan nan nan nan nan nan 250 248 248 244 nan nan nan nan nan nan 255 258 258 255 258 271 271 270 264 264 nan nan nan nan nan nan nan nan nan nan nan nan nan 268 284 291 292
nan nan nan nan nan nan 255 248 246 240 245 nan nan nan nan nan nan 259 259 258 262 261 269 nan nan 261 260 262 nan nan nan nan nan nan nan nan nan nan nan nan 273 279 288
nan nan nan nan nan nan nan nan nan nan nan nan nan nan nan nan nan nan 259 264 263 266 265 262 nan nan nan 256 258 nan nan nan nan nan nan nan nan nan nan nan nan 274 280
nan nan nan nan nan nan nan nan nan nan nan nan nan nan nan nan nan nan nan nan 263 263 267 nan 266 nan nan nan 258 nan nan nan nan nan nan nan nan nan nan nan nan nan 276
nan nan nan nan nan nan nan nan nan nan nan nan nan nan nan nan nan nan nan nan nan nan nan nan nan nan nan nan nan nan nan nan nan nan nan nan nan nan nan nan nan nan nan
nan nan nan nan nan nan nan nan nan nan nan nan nan nan nan nan nan nan nan nan nan nan nan nan nan nan nan nan nan nan nan nan nan nan nan nan nan nan nan nan nan nan nan
nan nan nan 256 261 264 261 257 nan nan nan nan nan nan nan nan nan nan nan nan nan nan nan nan nan nan 268 nan nan nan nan nan nan nan nan nan nan nan nan nan nan nan nan
nan 246 249 249 247 247 246 250 248 nan nan nan nan nan nan nan nan nan 267 266 nan nan nan nan nan nan nan nan nan nan nan nan nan nan nan nan nan nan nan nan nan nan nan
226 nan nan nan nan nan nan nan nan nan 252 nan 246 nan nan nan nan nan 267 268 nan nan nan nan nan nan nan nan nan nan nan nan nan nan nan nan nan 255 256 258 265 270 nan
nan nan nan nan nan nan nan nan nan nan 252 nan nan nan nan nan nan nan nan nan nan nan nan nan nan nan nan nan nan nan nan nan nan 260 250 255 253 257 256 264 276 274 nan
nan nan nan nan nan nan 231 nan 231 242 nan nan nan nan nan nan nan nan nan nan 265 nan nan nan nan nan nan nan nan nan nan nan nan 255 253 251 260 266 276 279 274 nan nan